Location: Estes Par
(40.3770°N, 10.0000°W)
Time: 04:01:20
(UTC-07:00)

Tiangong 2 - Visible Passes

Search period start: 18 December 2017 00:00
Search period end: 28 December 2017 00:00
Orbit: 387 x 389 km, 42.8° (Epoch: 18 December)

Date Brightness Start Highest point End Pass type
(mag) Time Alt. Az. Time Alt. Az. Time Alt. Az.
20 Dec 3.4 12:19:07 10° SSW 12:20:17 17° S 12:20:17 17° S visible
21 Dec 3.3 11:21:39 10° S 11:23:29 15° SE 11:24:44 12° ESE visible
21 Dec 4.5 12:56:46 10° WSW 12:57:02 12° WSW 12:57:02 12° WSW visible
22 Dec 1.7 11:58:28 10° SW 12:01:26 43° SSE 12:01:26 43° SSE visible
23 Dec 2.6 11:00:27 10° SSW 11:03:08 26° SSE 11:05:46 10° E visible
23 Dec 3.4 12:36:36 10° WSW 12:38:03 25° W 12:38:03 25° W visible
24 Dec 1.1 11:38:08 10° WSW 11:41:16 73° SSE 11:42:21 37° E visible
25 Dec 2.1 12:16:30 10° W 12:18:53 43° WNW 12:18:53 43° WNW visible
26 Dec 1.1 11:17:55 10° W 11:21:05 75° NNW 11:23:08 20° ENE visible
26 Dec 4.3 12:54:58 10° WNW 12:55:25 13° WNW 12:55:25 13° WNW visible
27 Dec 1.3 11:56:23 10° W 11:59:29 52° N 11:59:39 51° NNE visible
